Walhalla, ND

4:36 PM CST on November 18, 2017 (GMT -0600)
Walhalla

Weather History for K96D - December, 2012

Change the Weather History Date:

Saturday, December 1, 2012

  Actual Average (KGAF) Record (KGAF)
Temperature  
Mean Temperature 26 °F -  
Max Temperature 32 °F 25 °F 59 °F (1969)
Min Temperature 19 °F 8 °F -20 °F (1985)
Degree Days  
Heating Degree Days 40    
Moisture  
Dew Point 27 °F    
Average Humidity 100    
Maximum Humidity 100    
Minimum Humidity 100    
Precipitation  
Precipitation 0.00 in - - ()
Sea Level Pressure  
Sea Level Pressure 29.77 in    
Wind  
Wind Speed 9 mph (NNW)    
Max Wind Speed 15 mph    
Max Gust Speed 22 mph    
Visibility 6 miles    
Events Fog    
Averages and records for this station are not official NWS values.
T = Trace of Precipitation, MM = Missing Value Source: NWS Daily Summary

Daily Weather History Graph

Daily Weather History Graph

Search for Another Location

Airport or City:

Trip Planner

Search our weather history database for the weather conditions in past years. The results will help you decide how hot, cold, wet, or windy it might be!

Date:

Astronomy

Dec. 01, 2012 Rise Set
Actual Time 8:04 AM CST 4:36 PM CST
Civil Twilight 7:28 AM CST 5:13 PM CST
Nautical Twilight 6:48 AM CST 5:52 PM CST
Astronomical Twilight 6:10 AM CST 6:31 PM CST
Moon 7:32 PM CST (12/1) 10:14 AM CST (12/1)
Length of Visible Light 9h 44m
Length of Day
8h 32m
Waning Gibbous, 91% of the Moon is Illuminated
Dec 1
Waning Gibbous
Dec 6
Last Quarter
Dec 13
New
Dec 19
First Quarter
Dec 28
Full

Hourly Weather History & Observations

Time (CST) Temp. Windchill Dew Point Humidity Pressure Visibility Wind Dir Wind Speed Gust Speed Precip Events Conditions
12:15 AM 32.0 °F 22.1 °F 32.0 °F 100% 29.74 in 3.0 mi SSE 13.8 mph - N/A   Overcast
12:35 AM 32.0 °F 22.5 °F 32.0 °F 100% 29.74 in 3.0 mi SSE 12.7 mph - N/A   Overcast
12:55 AM 32.0 °F 22.1 °F 32.0 °F 100% 29.72 in 3.0 mi SSE 13.8 mph 18.4 mph N/A   Overcast
1:15 AM 32.0 °F 22.5 °F 32.0 °F 100% 29.71 in 3.0 mi SSE 12.7 mph - N/A   Overcast
1:35 AM 32.0 °F 23.6 °F 32.0 °F 100% 29.70 in 3.0 mi SSE 10.4 mph - N/A   Overcast
1:55 AM 32.0 °F 23.6 °F 32.0 °F 100% 29.69 in 3.0 mi SSE 10.4 mph - N/A   Overcast
2:15 AM 32.0 °F 23.6 °F 32.0 °F 100% 29.69 in 3.0 mi SSE 10.4 mph - N/A   Overcast
3:35 AM 32.0 °F 25.6 °F 32.0 °F 100% 29.67 in 3.0 mi SSE 6.9 mph - N/A   Overcast
3:55 AM 32.0 °F 24.8 °F 32.0 °F 100% 29.66 in 3.0 mi SE 8.1 mph - N/A   Overcast
4:15 AM 32.0 °F 24.2 °F 32.0 °F 100% 29.65 in 3.0 mi SE 9.2 mph - N/A   Mostly Cloudy
4:35 AM 32.0 °F 24.8 °F 32.0 °F 100% 29.65 in 3.0 mi SSE 8.1 mph - N/A   Mostly Cloudy
5:15 AM 32.0 °F 27.5 °F 32.0 °F 100% 29.65 in 3.0 mi SSE 4.6 mph - N/A   Overcast
5:35 AM 32.0 °F 27.5 °F 32.0 °F 100% 29.65 in 3.0 mi SSE 4.6 mph - N/A   Overcast
6:15 AM 32.0 °F - 32.0 °F 100% 29.66 in 4.0 mi Calm Calm - N/A   Mostly Cloudy
6:35 AM 32.0 °F - 32.0 °F 100% 29.66 in 3.0 mi Calm Calm - N/A   Overcast
6:55 AM 32.0 °F - 32.0 °F 100% 29.66 in 3.0 mi Calm Calm - N/A   Overcast
7:15 AM 32.0 °F 28.7 °F 32.0 °F 100% 29.67 in 3.0 mi SW 3.5 mph - N/A   Overcast
7:35 AM 32.0 °F 28.7 °F 32.0 °F 100% 29.68 in 5.0 mi WSW 3.5 mph - N/A   Overcast
7:55 AM 32.0 °F - 32.0 °F 100% 29.68 in 3.0 mi Calm Calm - N/A   Overcast
8:15 AM 32.0 °F - 32.0 °F 100% 29.68 in 3.0 mi Calm Calm - N/A   Mostly Cloudy
8:35 AM 30.2 °F 26.7 °F 30.2 °F 100% 29.69 in 3.0 mi WNW 3.5 mph - N/A   Mostly Cloudy
8:55 AM 30.2 °F 26.7 °F 30.2 °F 100% 29.69 in 3.0 mi WNW 3.5 mph - N/A   Partly Cloudy
9:15 AM 28.4 °F 24.6 °F 28.4 °F 100% 29.70 in 3.0 mi NW 3.5 mph - N/A   Clear
9:35 AM 28.4 °F 24.6 °F 28.4 °F 100% 29.70 in 3.0 mi NW 3.5 mph - N/A   Clear
10:15 AM 32.0 °F 28.7 °F 32.0 °F 100% 29.71 in 4.0 mi NW 3.5 mph - N/A   Clear
10:35 AM 32.0 °F 24.8 °F 32.0 °F 100% 29.71 in 5.0 mi NW 8.1 mph - N/A   Clear
10:55 AM 32.0 °F 24.2 °F 32.0 °F 100% 29.72 in 6.0 mi NNW 9.2 mph - N/A   Clear
11:15 AM 32.0 °F 22.5 °F 32.0 °F 100% 29.72 in 7.0 mi NNW 12.7 mph 17.3 mph N/A   Mostly Cloudy
11:35 AM 32.0 °F 23.6 °F 32.0 °F 100% 29.73 in 5.0 mi North 10.4 mph - N/A   Overcast
11:55 AM 32.0 °F 23.0 °F 32.0 °F 100% 29.73 in 5.0 mi NNW 11.5 mph 16.1 mph N/A   Mostly Cloudy
12:15 PM 32.0 °F 22.1 °F 32.0 °F 100% 29.74 in 2.5 mi North 13.8 mph 19.6 mph N/A   Overcast
12:35 PM 30.2 °F 19.3 °F 30.2 °F 100% 29.74 in 0.5 mi North 15.0 mph - N/A Fog Light Freezing Fog
12:55 PM 28.4 °F 17.5 °F 28.4 °F 100% 29.75 in 0.5 mi NNW 13.8 mph - N/A Fog Light Freezing Fog
1:15 PM 26.6 °F 15.2 °F 26.6 °F 100% 29.75 in 1.0 mi NNW 13.8 mph 21.9 mph N/A   Overcast
1:35 PM 26.6 °F 18.2 °F 26.6 °F 100% 29.75 in 2.0 mi NNW 8.1 mph 18.4 mph N/A   Overcast
1:55 PM 26.6 °F 16.2 °F 26.6 °F 100% 29.77 in 5.0 mi NNW 11.5 mph - N/A   Overcast
2:15 PM 26.6 °F 16.8 °F 26.6 °F 100% 29.78 in 6.0 mi NNW 10.4 mph - N/A   Overcast
2:35 PM 26.6 °F 17.5 °F 26.6 °F 100% 29.79 in 7.0 mi NNW 9.2 mph - N/A   Overcast
3:15 PM 24.8 °F 14.6 °F 24.8 °F 100% 29.80 in 1.5 mi NNW 10.4 mph - N/A   Overcast
3:35 PM 24.8 °F 15.3 °F 24.8 °F 100% 29.81 in 1.8 mi NW 9.2 mph - N/A   Overcast
4:15 PM 24.8 °F 15.3 °F 24.8 °F 100% 29.82 in 4.0 mi NNW 9.2 mph - N/A   Overcast
4:35 PM 24.8 °F 14.6 °F 24.8 °F 100% 29.83 in 5.0 mi NNW 10.4 mph - N/A   Overcast
4:55 PM 23.0 °F 13.9 °F 23.0 °F 100% 29.83 in 5.0 mi NNW 8.1 mph - N/A   Overcast
5:15 PM 23.0 °F 11.7 °F 23.0 °F 100% 29.84 in 9.0 mi North 11.5 mph - N/A   Overcast
5:55 PM 23.0 °F 12.4 °F 23.0 °F 100% 29.84 in 10.0 mi North 10.4 mph - N/A   Overcast
6:15 PM 21.2 °F 9.5 °F 21.2 °F 100% 29.85 in 8.0 mi North 11.5 mph - N/A   Overcast
6:35 PM 21.2 °F 9.5 °F 21.2 °F 100% 29.86 in 10.0 mi North 11.5 mph - N/A   Overcast
6:55 PM 19.4 °F 7.9 °F 19.4 °F 100% 29.86 in 10.0 mi North 10.4 mph - N/A   Overcast
7:15 PM 21.2 °F 12.6 °F 21.2 °F 100% 29.86 in 10.0 mi North 6.9 mph - N/A   Overcast
7:35 PM 19.4 °F 9.5 °F 19.4 °F 100% 29.85 in 10.0 mi NNW 8.1 mph - N/A   Overcast
7:55 PM 19.4 °F 10.4 °F 19.4 °F 100% 29.86 in 10.0 mi North 6.9 mph - N/A   Overcast
8:15 PM 19.4 °F 10.4 °F 19.4 °F 100% 29.86 in 10.0 mi North 6.9 mph - N/A   Overcast
8:35 PM 19.4 °F 10.4 °F 19.4 °F 100% 29.87 in 10.0 mi NNW 6.9 mph - N/A   Overcast
8:55 PM 19.4 °F 9.5 °F 19.4 °F 100% 29.88 in 10.0 mi NNW 8.1 mph - N/A   Overcast
9:15 PM 19.4 °F 10.4 °F 19.4 °F 100% 29.88 in 10.0 mi NNW 6.9 mph - N/A   Overcast
9:35 PM 19.4 °F 9.5 °F 19.4 °F 100% 29.88 in 10.0 mi NNW 8.1 mph - N/A   Overcast
9:55 PM 19.4 °F 9.5 °F 19.4 °F 100% 29.89 in 10.0 mi North 8.1 mph - N/A   Overcast
10:15 PM 19.4 °F 12.8 °F 19.4 °F 100% 29.89 in 10.0 mi North 4.6 mph - N/A   Overcast
10:35 PM 19.4 °F 12.8 °F 19.4 °F 100% 29.89 in 10.0 mi NNE 4.6 mph - N/A   Overcast
10:55 PM 19.4 °F 14.3 °F 19.4 °F 100% 29.89 in 10.0 mi NNE 3.5 mph - N/A   Overcast
11:15 PM 19.4 °F 11.5 °F 19.4 °F 100% 29.89 in 10.0 mi North 5.8 mph - N/A   Overcast
11:35 PM 19.4 °F 14.3 °F 19.4 °F 100% 29.89 in 10.0 mi North 3.5 mph - N/A   Overcast
11:55 PM 19.4 °F 14.3 °F 19.4 °F 100% 29.89 in 10.0 mi NNE 3.5 mph - N/A   Overcast